NUSAT-5 (MARYAM) (43204 NORAD) Tracking and Keplerian Element Data

This shows tracking and keplerian element data for the satellite.

Feedback or suggestion? Click here.




ElementValue
Catalog43204
NameNUSAT-5 (MARYAM)
Epoch Orbit30994
Epoch Day239.10757449
Epoch Year2023
RAAN40.5553
Inclination97.5798
Eccentricity0.0008152
Argument of Perigee281.0478
Mean Anonmoly78.986
Mean Motion15.5840241
Decay Rate0.00062759
L11 43204U 18015K 23239.10757449 .00062759 00000+0 82053-3 0 9993
L22 43204 97.5798 40.5553 0008152 281.0478 78.9860 15.58402410309941



Live tracking and technical data element details for NUSAT-5 (MARYAM) (NORAD 43204). NUSAT-5 (MARYAM) can be tracked NOW for your location showing map with azimuth and elevation plus other details from your city location.







IsCatalogInMostPopularTable: catalog: 43204, numindb: 710
Update: records affected: 1



GetName: 43204 NUSAT-5 (MARYAM)

Hit Count: updated at: Fri, 19 Apr 2024 12:58:08 GMT